STARLINK-36964

operational
NORAD ID: 70121 Constellation: starlink
LEOCIRCULAR

STARLINK-36964について

説明を読み込み中...

リアルタイム位置

3D地球を読み込み中...

次回通過

高度履歴

Altitude vs Time

uPlot chart will show altitude changes over time

軌道要素

1 70121C 26050T 26073.73243056 .00575280 00000+0 75209-3 0 737
2 70121 53.1639 257.6162 0011034 268.4477 224.5629 16.05514857 19
Epoch: Mar 14, 2026 • Age: 47 hours

現在のステータス

高度 266.7 km
速度 7.75 km/s
衛星直下点 46.82°N, 145.47°W
打ち上げ日 Mar 14, 2026
運用期間 1 days
タイプ internet

大規模コンステレーション

Loading constellations...